Location: Unspecified
(64.9000°N, 0.0000°E)
Time: 00:13:06
(UTC+00:00)

Altair - Pass Details

Date: 18 June 2019
Orbit: 1501 x 1683 km, 47.2° (Epoch: 19 July)

Event Time Altitude Azimuth Distance (km) Brightness Sun altitude
Rises 00:39:40 0° 253° (WSW) 4,826 9.8 -1.4°
Reaches altitude 10° 00:43:21 10° 242° (WSW) 3,866 9.3 -1.3°
Maximum altitude 00:51:05 27° 190° (S) 2,796 8.3 -1.2°
Drops below altitude 10° 00:58:57 10° 139° (SE) 3,940 9.3 -1.0°
Sets 01:02:45 0° 128° (SE) 4,933 9.9 -0.9°
